Regional Weather Roundup
Issued by NWS Kansas City/Pleasant Hill, MO

Home | Current Version | Previous Version | Text Only | Print | Product List | Glossary On
Versions: 1 2 3 4 5 6 7 8 9 10 11 12 13 14 15 16 17 18 19 20 21 22 23 24 25 26 27 28 29 30 31 32 33 34 35 36 37 38 39 40 41 42 43 44 45 46 47 48 49 50
000
ASUS43 KEAX 040910
RWREAX

WEATHER ROUNDUP FOR EASTERN KANSAS AND NORTHWEST MISSOURI
NATIONAL WEATHER SERVICE KANSAS CITY/PLEASANT HILL MO
400 AM CDT TUE AUG 04 2015

KSZ040-057-103>105-MOZ028-029-037-043-041000-
...KANSAS CITY METROPOLITAN AREA...

CITY           SKY/WX    TMP DP  RH WIND       PRES   REMARKS
K.C. INTL      PTCLDY    73  66  78 E13       29.94R
K.C. DOWNTOWN  PTCLDY    75  68  78 E5        29.92S
LEES SUMMIT    PTCLDY    72  67  84 E6        29.94S
OLATHE - IXD   PTCLDY    73  70  90 E5        29.94S
OLATHE - OJC   PTCLDY    72  69  90 CALM      29.93S
LAWRENCE       PTCLDY    72  69  90 CALM      29.92S

$$

MOZ001>008-011>017-020>025-030>033-038>040-044>046-053-054-041000-
...NORTHERN AND CENTRAL MISSOURI...

CITY           SKY/WX    TMP DP  RH WIND       PRES   REMARKS
ST. JOSEPH     PTCLDY    72  66  81 NE3       29.94R
MOSBY          PTSUNNY   68  68 100 CALM      29.94R
WARRENSBURG    PTCLDY    70  68  94 CALM      29.93S
WHITEMAN AFB   PTCLDY    70  69  96 E3        29.92S
CLINTON        PTCLDY    72  72 100 CALM      29.94S
SEDALIA        CLEAR     73  69  87 NE7       29.96R
WARSAW         NOT AVBL
CHILLICOTHE      N/A     71  65  81 E3        29.97R
KIRKSVILLE     CLOUDY    66  62  87 CALM      30.00R

$$

MOZ041-047>049-056>058-063>065-088>090-097-041000-
...EASTERN AND SOUTHERN MISSOURI...

CITY           SKY/WX    TMP DP  RH WIND       PRES   REMARKS
ST. LOUIS INTL CLOUDY    77  65  66 NE5       29.95S
SPIRIT OF STL  MOCLDY    73  72  96 CALM      29.93S
COLUMBIA       PTCLDY    72  66  81 NE9       29.96R
JEFFERSON CITY PTCLDY    74  67  78 CALM      29.94R
ROLLA          CLEAR     71  69  93 S3        29.95R
OSAGE BEACH    CLEAR     72  68  88 CALM      29.95S
SPRINGFIELD    CLEAR     71  67  87 S5        29.96F
BRANSON        CLEAR     68  66  94 CALM      29.99S
JOPLIN         PTCLDY    72  66  81 S3        29.94F
WEST PLAINS    CLEAR     71  67  87 CALM      29.99R

$$

IAZ060-094-KSZ022-034>040-054-083-096-NEZ052-066-093-041000-
...KANSAS...SOUTHEAST NEBRASKA AND IOWA...

CITY           SKY/WX    TMP DP  RH WIND       PRES   REMARKS
TOPEKA         CLEAR     74  71  91 CALM      29.91F
MANHATTAN      PTCLDY    72  71  97 CALM      29.90F
EMPORIA        MOCLDY    70  67  90 S7        29.92S
CHANUTE        PTCLDY    69  67  93 S5        29.94S
WICHITA        CLOUDY    75  67  76 S6        29.93R
OMAHA          MOCLDY    70  61  73 SE3       29.94F
LINCOLN        MOCLDY    70  65  84 E9        29.94R
FALLS CITY     PTCLDY    70  68  93 E7        29.93S
LAMONI         MOCLDY    69  62  78 CALM      29.98R
DES MOINES     MOCLDY    69  59  70 CALM      29.95R

$$




USA.gov is the U.S. government's official web portal to all federal, state and local government web resources and services.